Charleston, SC

7:53 PM EDT on August 24, 2016 (GMT -0400)
Charleston Air Force Base-International

Weather History for KCHS - September, 2013

Change the Weather History Date:

Wednesday, September 4, 2013

  Actual Average Record
Temperature  
Mean Temperature 83 °F 79 °F  
Max Temperature 94 °F 87 °F 99 °F (1944)
Min Temperature 72 °F 70 °F 60 °F (1997)
Degree Days  
Heating Degree Days 0 0  
Month to date heating degree days 0 0  
Since 1 July heating degree days 0 0  
Cooling Degree Days 18 14  
Month to date cooling degree days 75 56  
Year to date cooling degree days 1930 1861  
Growing Degree Days 32 (Base 50)    
Moisture  
Dew Point 72 °F    
Average Humidity 70    
Maximum Humidity 91    
Minimum Humidity 49    
Precipitation  
Precipitation 0.66 in 0.23 in 6.06 in (1979)
Month to date precipitation 1.01 0.94  
Year to date precipitation 47.07 36.58  
Sea Level Pressure  
Sea Level Pressure 30.02 in    
Wind  
Wind Speed 4 mph (SW)    
Max Wind Speed 20 mph    
Max Gust Speed 28 mph    
Visibility 9 miles    
Events Rain , Thunderstorm    
T = Trace of Precipitation, MM = Missing Value Source: NWS Daily Summary

Daily Weather History Graph

Daily Weather History Graph

Search for Another Location

Airport or City:

Trip Planner

Search our weather history database for the weather conditions in past years. The results will help you decide how hot, cold, wet, or windy it might be!

Date:

Astronomy

Sep. 04, 2013 Rise Set
Actual Time 6:56 AM EDT 7:40 PM EDT
Civil Twilight 6:31 AM EDT 8:05 PM EDT
Nautical Twilight 6:02 AM EDT 8:35 PM EDT
Astronomical Twilight 5:31 AM EDT 9:05 PM EDT
Moon 6:07 AM EDT (9/4) 7:01 PM EDT (9/4)
Length of Visible Light 13h 34m
Length of Day
12h 43m
Waning Crescent, 1% of the Moon is Illuminated
Sep 4
Waning Crescent
Sep 5
New
Sep 12
First Quarter
Sep 19
Full
Sep 26
Last Quarter

Hourly Weather History & Observations

Time (EDT) Temp. Heat Index Dew Point Humidity Pressure Visibility Wind Dir Wind Speed Gust Speed Precip Events Conditions
12:56 AM 75.9 °F - 69.1 °F 79% 29.96 in 10.0 mi Calm Calm - N/A   Partly Cloudy
1:56 AM 75.9 °F - 69.1 °F 79% 29.96 in 10.0 mi Calm Calm - N/A   Partly Cloudy
2:56 AM 75.0 °F - 69.1 °F 82% 29.96 in 10.0 mi West 4.6 mph - N/A   Partly Cloudy
3:56 AM 73.9 °F - 69.1 °F 85% 29.96 in 10.0 mi Calm Calm - N/A   Clear
4:56 AM 73.0 °F - 69.1 °F 87% 29.97 in 10.0 mi WSW 3.5 mph - N/A   Clear
5:56 AM 73.0 °F - 68.0 °F 84% 29.97 in 10.0 mi Calm Calm - N/A   Clear
6:56 AM 73.0 °F - 68.0 °F 84% 30.00 in 10.0 mi NNW 3.5 mph - N/A   Clear
7:56 AM 75.9 °F - 70.0 °F 82% 30.02 in 10.0 mi WNW 3.5 mph - N/A   Partly Cloudy
8:56 AM 79.0 °F - 71.1 °F 77% 30.04 in 10.0 mi West 5.8 mph - N/A   Partly Cloudy
9:56 AM 82.9 °F 88.0 °F 72.0 °F 69% 30.05 in 10.0 mi Calm Calm - N/A   Clear
10:56 AM 87.1 °F 94.5 °F 73.0 °F 63% 30.05 in 10.0 mi Calm Calm - N/A   Clear
11:56 AM 89.1 °F 97.0 °F 73.0 °F 59% 30.05 in 10.0 mi ESE 3.5 mph - N/A   Partly Cloudy
12:56 PM 91.0 °F 99.3 °F 73.0 °F 55% 30.04 in 10.0 mi WSW 5.8 mph - N/A   Scattered Clouds
1:56 PM 91.0 °F 99.3 °F 73.0 °F 55% 30.03 in 10.0 mi NW 4.6 mph - N/A   Mostly Cloudy
2:56 PM 93.0 °F 100.7 °F 72.0 °F 50% 30.03 in 10.0 mi WSW 9.2 mph - N/A   Mostly Cloudy
3:56 PM 90.0 °F 99.0 °F 73.9 °F 59% 30.01 in 10.0 mi East 6.9 mph - N/A   Mostly Cloudy
4:41 PM 87.8 °F 95.6 °F 73.4 °F 62% 30.00 in 10.0 mi ESE 16.1 mph - N/A Thunderstorm Thunderstorm
4:56 PM 87.1 °F 92.0 °F 70.0 °F 57% 30.01 in 10.0 mi ESE 15.0 mph - N/A Thunderstorm Thunderstorm
5:51 PM 80.6 °F 84.6 °F 71.6 °F 74% 30.01 in 9.0 mi WNW 3.5 mph - 0.00 in   Mostly Cloudy
5:56 PM 81.0 °F 85.2 °F 72.0 °F 74% 30.02 in 5.0 mi Variable 3.5 mph - 0.00 in Rain Rain
6:08 PM 80.6 °F 83.9 °F 69.8 °F 70% 30.01 in 2.0 mi South 8.1 mph 27.6 mph 0.54 in Rain Heavy Rain
6:26 PM 80.6 °F 84.6 °F 71.6 °F 74% 30.01 in 4.0 mi SSE 11.5 mph 17.3 mph 0.66 in Rain Light Rain
6:56 PM 81.0 °F 85.8 °F 73.0 °F 77% 30.01 in 10.0 mi South 10.4 mph - 0.66 in   Mostly Cloudy
7:01 PM 80.6 °F 85.4 °F 73.4 °F 79% 30.02 in 10.0 mi South 10.4 mph - N/A Thunderstorm Thunderstorm
7:28 PM 78.8 °F - 71.6 °F 78% 30.02 in 10.0 mi South 9.2 mph - N/A   Mostly Cloudy
7:56 PM 77.0 °F - 72.0 °F 84% 30.02 in 10.0 mi SSW 8.1 mph - N/A   Scattered Clouds
8:56 PM 80.1 °F 84.5 °F 73.9 °F 81% 30.04 in 10.0 mi SSW 6.9 mph - N/A   Scattered Clouds
9:56 PM 80.1 °F 85.4 °F 75.9 °F 87% 30.06 in 9.0 mi SSW 4.6 mph - N/A   Mostly Cloudy
10:56 PM 81.0 °F 86.7 °F 75.0 °F 82% 30.08 in 10.0 mi WNW 3.5 mph - N/A   Mostly Cloudy
11:56 PM 79.0 °F - 75.0 °F 88% 30.09 in 10.0 mi NNW 3.5 mph - N/A   Mostly Cloudy